This is the latest recevied weather packets stored in our database for station/object KD4EED. If no packets are shown the sender has not sent any weather packets the latest 10 day(s).
| Time | Temp. | Humidity | Pressure | Rain* | Wind** | Luminosity | Snow |
|---|---|---|---|---|---|---|---|
| 1777760970 | 20.56° C | 66% | 1009.6 hPa | - | - | 413 W/m² | - |
| 1777760667 | 20.56° C | 66% | 1009.7 hPa | - | - | 295 W/m² | - |
| 1777760362 | 20.56° C | 65% | 1009.7 hPa | - | - | 361 W/m² | - |
| 1777760059 | 20.56° C | 66% | 1009.7 hPa | - | - | 417 W/m² | - |
| 1777759756 | 21.11° C | 65% | 1010 hPa | - | - | 488 W/m² | - |
| 1777759452 | 21.11° C | 64% | 1010.1 hPa | - | - | 771 W/m² | - |
| 1777759149 | 21.67° C | 64% | 1010.1 hPa | - | - | 316 W/m² | - |
| 1777758846 | 21.11° C | 64% | 1010.1 hPa | - | - | 337 W/m² | - |
| 1777758543 | 21.11° C | 64% | 1010.3 hPa | - | - | 327 W/m² | - |
| 1777758239 | 21.11° C | 64% | 1010.2 hPa | - | - | 475 W/m² | - |
| 1777757937 | 21.11° C | 65% | 1010.3 hPa | - | - | 414 W/m² | - |
| 1777757634 | 21.11° C | 65% | 1010.4 hPa | - | - | 391 W/m² | - |
| 1777757333 | 21.11° C | 65% | 1010.5 hPa | - | - | 774 W/m² | - |
| 1777757031 | 21.11° C | 64% | 1010.5 hPa | - | - | 383 W/m² | - |
| 1777756728 | 21.67° C | 64% | 1010.6 hPa | - | - | 375 W/m² | - |
| 1777756423 | 21.67° C | 63% | 1010.7 hPa | - | - | 811 W/m² | - |
| 1777756121 | 21.67° C | 63% | 1010.6 hPa | - | - | 752 W/m² | - |
| 1777755818 | 21.67° C | 63% | 1010.7 hPa | - | - | 586 W/m² | - |
| 1777755515 | 21.67° C | 63% | 1010.9 hPa | - | - | 675 W/m² | - |
| 1777755211 | 22.78° C | 61% | 1010.8 hPa | - | - | 767 W/m² | - |
| 1777754908 | 22.78° C | 62% | 1010.7 hPa | - | - | 766 W/m² | - |
| 1777754605 | 23.33° C | 60% | 1010.8 hPa | - | - | 695 W/m² | - |
| 1777754303 | 23.33° C | 61% | 1010.7 hPa | - | - | 703 W/m² | - |
| 1777754000 | 22.78° C | 61% | 1010.8 hPa | - | - | 786 W/m² | - |
| 1777753700 | 22.78° C | 66% | 1010.6 hPa | - | - | 780 W/m² | - |
* Rain since midnight (hover to see other rain measurements)
** Current wind speed in m/s (hover to see current wind gust speed)